Location: Lalanga
(4.5882°N, 32.9072°E)
Time: 13:54:03
(UTC+00:00)

ISS - Visible Passes

Search period start: 07 April 2020 00:00
Search period end: 17 April 2020 00:00
Orbit: 418 x 423 km, 51.6° (Epoch: 07 April)

Date Brightness Start Highest point End Pass type
(mag) Time Alt. Az. Time Alt. Az. Time Alt. Az.
10 Apr -1.8 16:58:09 10° N 16:59:45 17° NE 16:59:45 17° NE visible
11 Apr -1.0 17:47:01 10° WNW 17:48:22 20° WNW 17:48:22 20° WNW visible
12 Apr -3.7 16:59:31 10° NW 17:02:51 76° SW 17:04:02 37° SSE visible
13 Apr -3.2 16:12:30 10° NNW 16:15:41 41° NE 16:18:52 10° SE visible
14 Apr -0.8 17:03:18 10° W 17:05:05 14° SW 17:06:52 10° SSW visible
15 Apr -1.8 16:14:56 10° WNW 16:17:53 29° SW 16:20:51 10° S visible
